NOAA 16 DEB, 41237

Orbit data source: Space-Track

NOAA 16 DEB, 41237 is space debris in SSO originally from a launch on Thu, 21 Sep 2000 UTC launched from the Air Force Western Test Range (AFWTR). Debris objects in space refer to the collection of defunct objects orbiting the Earth. Examples of debris include non-operational satellites, rocket bodies, and fragments generated from explosions, collisions, or faulty payload assembly.

Loading next visibility...
Identifier
41237, 2000-055ES
Orbit
SSO
Country
Flag of USUS
Related business
Manufacturer
Unknown
Mission
Spacecraft
Bus & Motor
Unknown
Mass
Unknown
Launch date (UTC)
2000-09-21 (26 years ago)
Launch vehicle
Unknown
Launch site
Air Force Western Test Range (AFWTR)
Object type
Payload
Rocket body
Debris
Shape & HBR
Unknown shape, 0.1 m
Radar Cross Section
Medium (>0.1 m² and <1 m²)

Expand to show TLE details & history
Last TLE update: 3 days ago

TLE from 3 days ago
0 NOAA 16 DEB
1 41237U 00055ES  26170.14276519  .00005680  00000-0  12971-2 0  9999
2 41237  98.9908  58.3845 0038337  32.8324 327.5242 14.55728012550573
Epoch: 2026-06-19T03:25Z
TLE epoch observation values (Epoch: 2026-06-19T03:25:34.912Z)
Latitude
-0.00001°
Longitude
99.61305°
Altitude
687.066 km
Speed
7.525 km/s
True Right ascension
03h 53m 32s
True Declination
0° 00' 00"
Sunlit
Object was in daylight at epoch
Visualization orbit readout
Latitude
Unknown
Longitude
Unknown
Altitude
Unknown
Speed
Unknown
Apparent Right ascension
Unknown
Apparent Declination
Unknown
Sunlit
N/A
Visualization observer readout
Local Sidereal Time
21:35:37
Azimuth
Unknown
Elevation
Unknown
Doppler factor
Unknown
Orbital elements
Apogee altitude
731.278 km
Perigee altitude
676.975 km
Semi-major axis
7,082.263 km
Eccentricity
0.00383
Inclination
98.9908°
RAAN
58.3845°
Arg. of periapsis
32.8324°
True anomaly
327.28736°
Mean anomaly
327.5242°
Eccentric anomaly
327.40588°
Mean motion
3.64154 °/min
Orbital period
98.86 mins
BSTAR
0.0012971
Loading maneuver chart data...
Computing Atmospheric mass density...
Loading historical data...
Loading historical data...
Loading historical data...
Loading historical data...
Loading historical data...
Loading historical data...
Loading historical data...

Documentation

Showing up to 5 results
|